Simultaneous Nadir Overpasses (SNOs) Predictions

Prediction of SNOs between NOAA-20 and NOAA-19 Satellite Orbit:

Table of predicted SNOs for the next 14.0 days since TLE Epoch: 4/27/2018
Index Date (NOAA-20) Time (NOAA-20) Lat,Lon (NOAA-20) SZA (NOAA-20 ) Date (NOAA-19) Time (NOAA-19) Lat,Lon (NOAA-19) SZA (NOAA-19 ) Distance(km) Time Diff (sec)
1 05/07/2018 21:11:18 -80.58, -3.61 113.56 05/07/2018 21:10:15 -80.58, -3.45 113.54 2.85 63
2 05/07/2018 22:02:03 80.58, 163.66 66.45 05/07/2018 22:01:14 80.58, 163.82 66.45 2.96 49
3 05/07/2018 22:52:48 -80.58, -29.03 113.57 05/07/2018 22:52:16 -80.58, -28.88 113.57 2.66 32
4 05/07/2018 23:43:33 80.59, 138.24 66.44 05/07/2018 23:43:15 80.58, 138.38 66.43 2.67 18
5 05/08/2018 00:34:18 -80.59, -54.45 113.58 05/08/2018 00:34:17 -80.59, -54.31 113.60 2.47 1
6 05/08/2018 01:25:03 80.59, 112.82 66.42 05/08/2018 01:25:16 80.59, 112.94 66.40 2.39 13
7 05/08/2018 02:15:48 -80.59, -79.87 113.59 05/08/2018 02:16:18 -80.59, -79.74 113.62 2.28 30
8 05/08/2018 03:06:33 80.59, 87.40 66.41 05/08/2018 03:07:17 80.59, 87.51 66.37 2.11 44
9 05/08/2018 03:57:18 -80.59,-105.29 113.60 05/08/2018 03:58:19 -80.59,-105.17 113.65 2.09 61




NCC Satellite Simultaneous Nadir Overpasses (SNOs) Prediction Service
